Temp
-14 -13 -13 -13 -13 -14 -14 -14 -14 -14 -14 -14 -14 -14 -13 -13 -13 -13 -13 -13 -13 -13 -13 -13 -14 -14 -14 -14 -14 -14 -14 -14 -14 -14 -14 -14 -14 -14 -14 -14 -14 -13
-14 -13 -13 -13 -13 -13 -14 -14 -14 -14 -14 -14 -14 -14 -13 -14 -13 -13 -13 -13 -13 -13 -13 -13 -14 -14 -14 -14 -14 -14 -14 -14 -14 -14 -14 -14 -14 -14 -14 -14 -14 -14
-14 -13 -13 -13 -13 -13 -14 -14 -14 -14 -14 -14 -14 -14 -13 -13 -13 -14 -14 -14 -14 -13 -14 -14 -14 -14 -14 -14 -14 -14 -14 -14 -14 -14 -14 -14 -14 -14 -14 -14 -14 -14
-14 -14 -13 -13 -13 -13 -13 -14 -14 -14 -14 -14 -14 -14 -14 -14 -14 -14 -14 -14 -14 -14 -14 -14 -14 -14 -14 -14 -14 -15 -15 -14 -14 -14 -14 -14 -14 -14 -14 -14 -14 -14
-14 -14 -14 -14 -13 -13 -13 -13 -13 -14 -14 -14 -14 -14 -14 -14 -14 -14 -14 -14 -14 -14 -14 -14 -14 -14 -14 -14 -15 -15 -15 -14 -14 -14 -14 -14 -14 -14 -14 -14 -14 -14
-14 -14 -14 -14 -13 -13 -13 -13 -13 -13 -14 -14 -14 -14 -14 -14 -14 -14 -14 -14 -14 -14 -14 -14 -14 -14 -14 -14 -15 -15 -15 -14 -14 -14 -14 -14 -14 -14 -14 -14 -14 -14
-13 -14 -14 -14 -14 -13 -14 -13 -13 -14 -14 -14 -14 -14 -14 -14 -14 -14 -14 -14 -14 -14 -14 -14 -14 -14 -14 -15 -15 -15 -15 -15 -15 -15 -15 -15 -15 -15 -15 -15 -14 -14
-13 -13 -14 -14 -14 -14 -14 -14 -14 -14 -14 -14 -14 -14 -14 -14 -14 -14 -14 -14 -14 -14 -14 -14 -14 -14 -14 -14 -15 -15 -15 -15 -15 -15 -15 -15 -15 -15 -15 -15 -15 -14
-13 -14 -14 -15 -15 -15 -14 -15 -15 -15 -15 -15 -14 -14 -14 -14 -14 -14 -14 -14 -15 -14 -14 -14 -14 -14 -14 -14 -15 -15 -15 -15 -15 -15 -15 -15 -15 -15 -15 -15 -15 -15
-14 -14 -14 -15 -14 -15 -15 -15 -15 -15 -15 -15 -15 -14 -14 -14 -14 -14 -14 -14 -15 -15 -14 -14 -14 -14 -14 -14 -15 -15 -15 -15 -15 -15 -15 -15 -15 -15 -15 -15 -15 -15
-14 -14 -15 -14 -14 -14 -14 -14 -14 -15 -15 -15 -15 -14 -14 -14 -15 -14 -14 -14 -15 -15 -14 -14 -14 -14 -14 -14 -15 -15 -15 -15 -15 -15 -15 -15 -15 -15 -15 -15 -15 -15
-14 -14 -14 -14 -14 -15 -15 -14 -14 -15 -15 -15 -15 -14 -14 -14 -14 -14 -14 -14 -14 -14 -14 -14 -14 -14 -14 -14 -15 -15 -15 -15 -15 -15 -15 -15 -15 -15 -15 -15 -15 -15
-15 -15 -15 -15 -15 -15 -15 -15 -15 -15 -15 -15 -15 -14 -14 -14 -14 -14 -14 -15 -15 -15 -14 -14 -14 -14 -14 -14 -15 -15 -15 -15 -15 -15 -15 -15 -15 -15 -15 -15 -15 -15
-15 -15 -15 -14 -14 -14 -14 -14 -14 -14 -14 -15 -14 -14 -14 -14 -14 -14 -15 -15 -15 -15 -14 -14 -14 -14 -14 -15 -15 -15 -15 -15 -15 -15 -16 -16 -16 -16 -16 -15 -15 -15
-15 -15 -14 -14 -14 -14 -14 -14 -14 -14 -14 -14 -14 -14 -14 -15 -15 -15 -15 -15 -15 -15 -15 -15 -15 -14 -15 -15 -15 -15 -15 -15 -15 -16 -16 -16 -16 -16 -16 -16 -15 -15
-14 -14 -14 -14 -14 -15 -14 -14 -14 -14 -14 -14 -15 -14 -14 -15 -15 -15 -15 -15 -15 -15 -15 -15 -15 -15 -15 -15 -15 -15 -15 -16 -16 -16 -16 -16 -16 -16 -16 -16 -16 -16
-14 -14 -14 -14 -14 -14 -14 -14 -14 -15 -14 -14 -15 -15 -14 -15 -15 -15 -15 -15 -15 -15 -15 -15 -15 -15 -15 -15 -15 -15 -16 -16 -16 -16 -16 -16 -16 -16 -16 -16 -16 -16
-14 -14 -14 -14 -14 -14 -14 -14 -14 -14 -14 -14 -15 -15 -14 -15 -15 -15 -15 -15 -15 -15 -16 -15 -15 -15 -15 -15 -15 -16 -16 -16 -16 -16 -16 -16 -16 -16 -16 -16 -16 -16
-14 -14 -14 -14 -14 -14 -14 -14 -14 -14 -14 -14 -15 -15 -14 -15 -15 -15 -15 -15 -15 -15 -16 -15 -15 -15 -15 -15 -16 -16 -16 -16 -16 -16 -17 -17 -17 -16 -16 -16 -16 -16
-14 -14 -14 -14 -14 -14 -14 -14 -14 -14 -14 -14 -15 -15 -15 -14 -15 -15 -15 -15 -15 -16 -15 -15 -15 -15 -15 -16 -16 -16 -16 -16 -16 -17 -17 -17 -17 -17 -17 -17 -17 -17
-15 -15 -14 -14 -14 -14 -14 -14 -14 -14 -14 -14 -15 -15 -15 -15 -15 -15 -15 -15 -16 -16 -15 -15 -15 -15 -15 -16 -16 -16 -16 -16 -16 -16 -17 -17 -17 -17 -17 -17 -17 -17
-15 -15 -14 -14 -14 -14 -14 -14 -14 -14 -14 -14 -15 -15 -15 -15 -15 -15 -15 -15 -15 -15 -15 -15 -15 -15 -16 -16 -16 -16 -16 -16 -16 -16 -16 -17 -17 -17 -17 -17 -17 -17
-15 -15 -14 -14 -14 -14 -14 -14 -14 -14 -14 -14 -14 -14 -15 -15 -15 -15 -15 -15 -15 -15 -15 -15 -15 -16 -16 -16 -16 -16 -16 -16 -16 -16 -16 -17 -17 -17 -17 -17 -17 -17
-15 -15 -14 -14 -14 -14 -14 -14 -14 -14 -14 -14 -14 -15 -15 -15 -15 -15 -15 -15 -15 -15 -15 -15 -15 -16 -16 -16 -16 -16 -16 -16 -16 -16 -16 -17 -17 -17 -17 -17 -17 -17
-15 -15 -15 -15 -15 -14 -14 -14 -14 -14 -14 -14 -15 -15 -15 -15 -15 -15 -15 -15 -15 -15 -15 -15 -15 -16 -16 -16 -16 -16 -16 -16 -16 -17 -16 -17 -17 -17 -17 -17 -17 -17
-15 -15 -15 -15 -15 -14 -14 -14 -14 -14 -14 -14 -14 -15 -15 -15 -15 -15 -15 -15 -15 -15 -15 -15 -15 -16 -16 -16 -16 -16 -16 -16 -17 -17 -17 -17 -17 -17 -17 -17 -17 -17
Height
5764 5765 5766 5766 5766 5767 5768 5770 5771 5771 5772 5772 5773 5774 5775 5776 5778 5779 5780 5780 5781 5782 5783 5783 5784 5786 5787 5788 5788 5789 5790 5791 5793 5794 5795 5795 5796 5797 5797 5798 5798 5798
5761 5762 5763 5763 5763 5764 5766 5767 5768 5769 5770 5770 5771 5772 5773 5774 5775 5777 5778 5778 5779 5780 5781 5782 5783 5784 5785 5786 5786 5787 5788 5789 5790 5791 5792 5793 5794 5795 5795 5796 5796 5796
5758 5759 5760 5760 5760 5761 5763 5764 5765 5766 5767 5768 5769 5769 5770 5771 5772 5774 5775 5776 5777 5778 5779 5780 5781 5782 5783 5783 5784 5785 5786 5787 5788 5789 5790 5791 5792 5793 5794 5794 5794 5794
5754 5756 5757 5758 5759 5759 5760 5761 5762 5763 5765 5766 5766 5767 5768 5768 5769 5771 5772 5774 5774 5776 5777 5778 5778 5779 5780 5781 5782 5783 5784 5785 5786 5787 5788 5789 5790 5791 5792 5792 5793 5793
5750 5752 5754 5755 5756 5756 5757 5758 5759 5760 5762 5763 5764 5764 5764 5765 5766 5768 5769 5771 5772 5773 5774 5775 5776 5777 5778 5779 5780 5781 5782 5783 5784 5784 5785 5786 5787 5788 5789 5790 5791 5791
5747 5748 5750 5751 5752 5753 5753 5754 5755 5757 5758 5759 5760 5761 5761 5762 5764 5766 5767 5768 5769 5770 5771 5772 5773 5774 5776 5776 5777 5778 5779 5781 5781 5782 5783 5784 5785 5786 5787 5788 5789 5789
5744 5744 5745 5747 5748 5749 5750 5751 5752 5753 5754 5755 5756 5757 5758 5759 5761 5763 5764 5765 5767 5768 5768 5769 5771 5772 5773 5774 5775 5776 5777 5778 5779 5780 5781 5782 5783 5784 5784 5785 5786 5787
5740 5741 5742 5744 5746 5746 5747 5749 5750 5751 5752 5752 5753 5754 5755 5757 5758 5759 5760 5762 5764 5765 5765 5767 5769 5770 5771 5772 5773 5774 5775 5776 5777 5778 5779 5780 5780 5781 5782 5783 5784 5785
5739 5739 5741 5743 5745 5745 5746 5747 5747 5748 5749 5749 5750 5751 5752 5753 5755 5756 5757 5759 5761 5762 5763 5765 5766 5767 5769 5770 5771 5772 5773 5774 5775 5775 5776 5777 5778 5779 5779 5780 5781 5782
5739 5739 5741 5742 5742 5742 5743 5744 5744 5745 5746 5746 5747 5748 5749 5750 5751 5753 5755 5756 5758 5759 5761 5763 5764 5765 5766 5767 5768 5769 5770 5771 5772 5773 5774 5774 5775 5776 5777 5777 5778 5779
5736 5737 5739 5739 5738 5738 5739 5740 5740 5742 5742 5743 5744 5745 5747 5747 5748 5750 5752 5753 5755 5757 5759 5761 5762 5763 5763 5764 5765 5766 5767 5768 5769 5770 5771 5772 5772 5773 5774 5774 5775 5776
5733 5734 5736 5736 5735 5736 5736 5737 5738 5739 5740 5740 5741 5742 5744 5745 5746 5747 5749 5751 5752 5754 5757 5758 5759 5759 5759 5760 5762 5763 5764 5765 5767 5768 5768 5768 5769 5770 5771 5772 5773 5773
5730 5732 5733 5734 5734 5733 5733 5734 5736 5738 5739 5738 5738 5739 5741 5742 5743 5745 5747 5749 5750 5752 5754 5754 5755 5755 5756 5758 5759 5760 5761 5763 5764 5765 5765 5765 5766 5767 5769 5769 5770 5771
5729 5731 5731 5730 5730 5730 5731 5732 5733 5735 5736 5736 5736 5737 5738 5739 5741 5743 5745 5746 5748 5749 5750 5750 5751 5752 5754 5756 5757 5757 5759 5760 5761 5761 5762 5763 5764 5765 5766 5767 5767 5767
5728 5729 5727 5726 5726 5726 5728 5729 5729 5730 5731 5732 5733 5734 5735 5737 5739 5740 5742 5743 5744 5745 5746 5747 5748 5750 5752 5753 5754 5755 5756 5757 5757 5758 5759 5760 5761 5763 5764 5764 5764 5765
5725 5725 5723 5722 5722 5723 5724 5725 5725 5726 5728 5728 5730 5731 5732 5734 5736 5737 5738 5740 5740 5742 5744 5745 5746 5747 5749 5750 5751 5752 5753 5754 5754 5755 5756 5757 5758 5760 5761 5762 5762 5762
5721 5720 5720 5719 5719 5719 5721 5721 5721 5722 5724 5725 5726 5728 5729 5730 5733 5734 5735 5736 5737 5739 5742 5742 5743 5744 5746 5747 5748 5749 5750 5751 5751 5752 5753 5754 5755 5756 5757 5758 5759 5760
5717 5717 5716 5717 5717 5716 5717 5718 5718 5719 5720 5722 5724 5726 5726 5727 5729 5730 5731 5733 5734 5737 5739 5739 5740 5741 5742 5743 5745 5746 5747 5748 5748 5749 5750 5751 5752 5753 5754 5755 5756 5757
5714 5714 5713 5713 5714 5714 5714 5715 5715 5716 5717 5719 5721 5723 5724 5724 5725 5727 5728 5729 5732 5734 5735 5736 5737 5738 5739 5740 5742 5743 5744 5745 5745 5746 5746 5748 5749 5750 5751 5752 5753 5754
5710 5710 5711 5710 5710 5710 5711 5712 5712 5713 5714 5716 5718 5720 5721 5721 5722 5724 5725 5726 5729 5730 5731 5733 5734 5734 5735 5737 5738 5740 5741 5742 5742 5743 5744 5744 5746 5747 5748 5749 5750 5751
5706 5706 5707 5707 5707 5708 5708 5709 5710 5710 5712 5713 5715 5716 5718 5719 5720 5721 5722 5723 5725 5727 5728 5730 5731 5731 5732 5733 5735 5736 5738 5739 5740 5740 5741 5742 5743 5744 5745 5745 5746 5747
5704 5703 5703 5704 5704 5706 5706 5707 5707 5708 5709 5711 5712 5713 5715 5716 5717 5718 5719 5720 5722 5723 5725 5726 5727 5728 5729 5729 5731 5732 5734 5736 5737 5738 5739 5739 5740 5740 5741 5742 5742 5743
5703 5702 5701 5701 5702 5704 5704 5704 5705 5706 5707 5708 5710 5711 5712 5713 5713 5714 5716 5717 5718 5720 5721 5723 5724 5725 5726 5727 5727 5728 5730 5732 5733 5734 5735 5736 5737 5737 5737 5738 5738 5739
5700 5700 5700 5699 5700 5701 5702 5702 5703 5703 5705 5706 5707 5708 5709 5709 5709 5711 5712 5713 5714 5716 5718 5719 5720 5722 5723 5724 5725 5725 5726 5727 5729 5730 5732 5733 5734 5734 5734 5734 5735 5735
5698 5698 5697 5696 5696 5698 5699 5700 5701 5701 5701 5703 5703 5703 5704 5705 5706 5707 5708 5709 5711 5712 5714 5715 5716 5718 5719 5720 5721 5722 5723 5724 5725 5726 5727 5729 5730 5730 5731 5731 5731 5731
5695 5695 5694 5694 5694 5694 5695 5697 5698 5699 5699 5699 5699 5699 5700 5702 5704 5704 5704 5706 5708 5709 5710 5711 5712 5713 5714 5715 5717 5718 5719 5721 5722 5722 5723 5725 5726 5726 5727 5728 5727 5727
Wind_Speed
21 21 21 22 21 19 19 21 21 22 23 24 24 24 23 24 24 25 26 26 25 24 23 22 22 23 22 22 21 22 22 23 23 23 23 23 22 22 21 20 19 18
23 24 24 23 23 20 19 20 21 22 23 24 24 24 24 25 26 26 26 26 26 25 24 24 24 24 23 22 22 22 22 23 23 23 23 22 22 22 21 20 19 18
23 25 26 25 23 20 19 19 20 22 23 23 23 23 24 26 27 27 27 27 27 27 25 25 25 25 24 23 22 22 22 22 22 22 22 22 22 22 21 20 19 19
22 24 27 26 23 21 21 21 22 23 23 23 22 22 25 27 27 28 28 28 28 27 26 27 27 26 24 23 22 22 22 22 22 21 22 22 22 22 21 20 20 19
21 24 27 28 26 26 26 26 26 25 24 25 24 24 27 29 28 29 30 29 29 28 28 28 27 25 23 23 23 22 21 21 21 21 22 22 23 22 22 21 20 20
20 23 26 29 30 30 30 31 31 28 26 25 25 25 27 28 28 28 30 30 29 29 29 28 26 24 22 23 23 22 21 21 21 21 22 23 23 23 22 22 21 21
22 24 26 28 29 31 32 32 32 29 26 26 26 26 27 27 27 27 28 29 28 29 29 28 25 23 22 23 23 21 21 21 21 21 22 23 23 24 23 23 22 21
22 23 25 26 26 28 29 28 28 27 26 26 27 27 28 28 27 27 27 27 27 29 30 28 25 24 23 23 23 22 21 21 21 21 22 22 23 24 24 24 23 22
22 22 22 22 22 23 24 25 26 25 25 26 27 27 27 27 27 27 27 26 27 28 29 28 25 24 23 24 23 23 22 22 21 21 21 22 23 23 24 24 23 22
21 21 20 20 21 22 23 24 26 25 25 25 26 26 25 26 27 27 26 26 28 29 27 25 24 23 23 24 24 24 23 22 22 21 21 22 22 23 23 23 23 22
21 22 21 22 25 25 24 24 26 26 26 26 26 26 25 26 27 26 26 27 30 30 28 26 24 24 24 25 25 25 24 23 22 21 21 21 23 23 23 23 22 21
23 24 23 23 26 27 27 28 27 27 27 28 28 27 26 27 27 27 28 29 30 31 30 29 27 26 26 27 27 26 25 23 21 20 21 22 23 24 23 22 22 21
22 23 24 24 25 27 28 29 28 28 29 31 31 29 27 28 28 27 27 29 31 31 31 30 30 28 27 27 27 26 24 22 21 21 22 23 24 23 22 22 22 22
22 21 22 24 25 26 27 27 28 29 31 32 32 29 28 28 27 26 27 29 31 31 31 31 30 28 26 26 26 25 23 22 22 22 23 23 23 23 22 23 23 24
21 20 22 24 25 25 25 26 27 30 31 32 32 30 28 26 26 27 28 30 32 31 31 29 28 26 26 26 25 25 23 23 23 23 23 23 23 23 23 23 24 24
20 20 22 24 25 25 24 24 27 29 29 31 31 31 29 25 25 27 29 31 33 33 31 28 27 26 25 25 26 25 24 23 24 24 24 24 24 24 23 23 23 23
20 21 22 23 24 25 25 24 25 26 28 30 31 32 30 25 23 26 28 30 32 31 29 28 27 27 26 26 27 25 24 24 25 26 25 24 25 25 24 23 23 23
21 22 23 23 24 26 25 25 24 24 27 30 30 31 32 27 23 25 27 28 29 27 27 28 28 28 28 28 27 26 25 25 26 26 25 24 25 26 25 24 23 24
22 23 24 24 25 25 25 25 24 24 27 30 28 30 34 30 25 25 26 27 27 26 27 29 29 29 29 29 28 27 26 25 25 25 25 25 25 25 25 25 25 26
23 23 23 24 24 24 24 24 24 25 28 30 28 30 36 34 28 26 26 26 27 28 28 29 29 29 30 30 29 26 25 24 24 24 25 26 27 26 26 26 27 27
24 23 23 23 22 22 23 24 24 26 28 28 28 32 38 37 30 26 25 26 28 30 30 28 29 29 29 29 28 26 24 24 24 24 25 27 28 28 28 28 28 28
23 23 23 22 22 20 21 22 24 25 27 28 28 32 38 38 31 26 25 27 30 32 30 28 28 29 29 29 28 27 26 24 25 26 26 26 27 28 28 29 29 29
21 20 19 20 21 19 20 22 23 24 28 31 30 31 36 40 34 27 26 29 33 33 30 29 29 29 29 30 31 30 29 27 26 26 27 26 27 27 28 28 28 29
19 17 17 19 21 21 23 25 25 25 28 32 32 32 38 43 38 30 28 32 34 32 30 30 30 29 29 30 31 32 31 29 27 27 27 27 26 27 28 29 29 30
19 18 20 21 19 22 25 26 27 29 31 33 35 37 42 44 38 32 32 33 32 30 30 30 30 30 30 31 32 32 32 31 29 29 28 27 27 28 29 29 30 30
20 20 21 23 20 18 23 26 29 32 35 37 38 40 43 41 34 31 34 34 31 29 29 29 30 31 32 32 33 33 33 32 31 31 30 28 27 29 28 28 30 31
Wind_Direction
247 243 239 234 232 231 230 229 225 223 225 227 228 228 227 227 225 224 225 226 225 224 226 229 232 234 234 234 235 236 239 241 243 243 243 242 242 242 243 244 245 245
248 247 241 235 235 232 226 228 229 229 230 231 233 235 235 234 233 232 231 229 227 227 229 233 235 236 236 235 235 235 238 241 243 244 243 242 242 243 245 247 248 249
250 251 247 241 235 227 220 226 234 237 236 236 237 239 240 239 238 237 234 233 232 232 233 235 236 236 235 235 235 235 237 241 244 244 243 244 245 245 246 248 250 252
250 250 248 243 233 225 224 231 238 241 241 240 239 238 240 241 240 238 235 235 235 235 233 234 236 236 234 233 234 235 237 240 243 244 245 247 248 248 248 248 251 254
241 243 244 241 234 230 233 239 244 246 245 243 239 236 237 239 239 238 236 236 236 235 232 233 235 234 230 230 233 235 237 240 242 244 246 248 249 250 251 251 253 256
237 239 241 240 239 237 237 241 245 247 246 244 240 238 238 238 237 237 238 237 236 234 234 234 234 232 229 229 232 235 238 241 243 245 247 248 250 251 252 253 255 257
238 236 237 238 239 239 237 240 244 246 247 246 242 239 239 239 238 240 239 237 235 235 236 237 235 233 232 232 233 235 239 243 246 248 249 250 250 251 252 254 255 257
238 233 233 233 234 236 236 238 242 245 248 248 245 240 239 240 242 244 242 237 233 234 238 241 238 234 234 235 236 238 241 246 249 251 252 251 251 251 253 254 255 256
234 234 233 230 232 236 236 237 239 241 245 247 247 245 242 242 243 245 243 236 230 233 239 242 240 237 236 236 237 239 243 247 250 253 254 253 251 252 253 255 255 254
237 238 235 232 233 235 236 237 236 238 241 245 248 248 244 242 243 245 245 235 229 232 240 242 243 241 239 239 240 241 243 247 251 254 254 253 252 252 253 254 254 253
244 242 239 236 235 235 237 239 237 237 241 245 248 247 243 239 239 242 241 235 231 233 238 244 248 246 241 240 240 241 244 247 251 254 254 253 251 251 252 252 251 250
243 243 243 241 240 240 241 243 242 240 242 246 247 247 244 239 237 238 238 236 234 235 239 244 247 243 240 241 240 241 245 248 252 254 253 251 250 250 251 250 249 250
247 247 247 246 246 244 244 246 247 246 246 246 246 245 243 241 239 238 236 235 234 236 239 241 242 241 240 241 242 243 247 250 253 253 251 250 250 250 250 249 249 249
258 256 253 250 247 245 246 248 251 253 251 245 243 243 241 240 238 236 234 232 233 237 239 239 241 242 240 240 242 245 249 252 252 250 250 249 250 250 248 247 248 248
264 263 257 252 248 247 249 248 250 255 252 242 239 240 241 240 236 234 235 233 232 234 236 239 243 243 239 238 242 246 248 250 250 249 250 250 249 249 247 246 247 249
268 266 260 255 251 251 253 251 249 251 245 237 235 234 236 239 236 234 238 238 236 233 234 239 243 241 240 241 245 249 248 248 249 249 249 249 248 246 245 245 248 249
268 268 265 260 253 251 253 253 251 248 237 231 233 231 229 234 237 238 241 241 238 235 235 238 238 236 240 245 248 249 248 247 248 248 248 248 247 245 243 243 246 248
265 264 263 260 254 252 253 252 250 246 233 228 231 230 225 228 237 242 244 241 235 233 234 234 233 234 240 244 246 245 244 246 248 247 246 246 246 245 244 242 243 244
266 261 258 257 253 251 251 249 246 242 233 229 230 225 220 226 240 246 245 240 233 232 234 232 232 235 240 243 244 242 240 242 246 245 243 244 246 248 247 245 244 245
272 265 257 251 247 245 245 246 244 240 233 230 231 225 221 228 242 246 244 239 232 234 237 234 233 236 239 240 241 240 239 241 243 242 241 243 246 248 250 250 249 249
277 274 265 250 241 239 241 244 245 242 235 233 233 230 225 229 239 247 243 234 230 234 238 237 236 237 238 239 241 242 241 242 244 243 242 243 246 247 249 251 252 252
281 281 273 253 235 234 242 245 246 242 235 232 233 232 228 227 234 246 244 233 229 234 238 240 241 240 239 241 245 247 247 245 245 245 245 246 247 248 249 251 253 254
282 283 273 248 229 231 242 244 243 240 233 229 232 234 229 226 230 243 244 234 230 233 237 241 244 244 241 242 246 249 250 248 246 246 247 247 248 250 251 252 254 256
280 276 265 249 231 224 232 235 235 236 233 231 235 235 228 224 229 239 241 232 228 232 237 242 245 246 245 245 246 249 251 250 249 249 248 247 248 249 251 253 255 257
280 273 269 270 251 222 217 223 229 233 233 232 234 234 228 224 227 234 234 228 228 233 239 242 244 245 245 245 246 248 249 249 250 250 248 247 249 251 253 255 256 256
280 278 278 285 277 239 215 215 221 228 232 233 234 234 229 226 229 233 229 227 233 240 243 245 244 242 243 244 245 245 245 246 248 249 249 248 250 252 253 254 255 256